Location: Newark
(42.8200°N, 13.1900°E)
Time: 01:48:02
(UTC+00:00)

STARLINK-1319 - Pass Details

Date: 07 April 2020
Orbit: 549 x 550 km, 53.0° (Epoch: 05 June)

Event Time Altitude Azimuth Distance (km) Brightness Sun altitude
Exits shadow 03:36:02 - 307° (NW) 2,562 6.7 -11.9°
Reaches altitude 10° 03:38:15 10° 320° (NW) 1,791 6.0 -11.5°
Maximum altitude 03:41:37 25° 16° (NNE) 1,115 5.6 -10.9°
Drops below altitude 10° 03:45:00 10° 73° (ENE) 1,786 7.9 -10.3°
Sets 03:47:31 0° 87° (E) 2,676 8.8 -9.9°
